Theta_e
309 308 307 305 303 300 296 294 286 297 299 289 284 284 286 290 291 294 292 292 290 288 289 287 287 286 289 292 292 289 291 288 284 286 289 289 290 290 290 283 281 285 283 283
310 309 307 306 303 301 296 293 292 298 298 284 284 283 284 289 291 292 291 289 291 292 288 285 289 289 293 293 291 291 291 287 281 281 285 288 287 290 291 291 289 283 281 284
310 309 308 307 304 301 294 291 285 288 293 288 287 283 283 285 290 291 292 291 291 290 288 289 287 289 292 293 292 293 293 287 284 281 283 287 284 287 290 289 284 284 284 286
310 309 308 307 304 302 292 290 285 288 284 285 287 288 285 285 282 288 291 289 290 289 284 286 286 290 290 292 292 292 291 285 284 285 286 286 286 286 287 286 287 282 285 286
311 310 308 307 305 302 289 284 284 283 285 286 287 287 285 286 287 285 284 285 290 290 286 290 285 289 290 289 291 290 291 283 285 280 285 285 282 286 287 287 287 286 287 286
311 310 309 307 305 297 289 288 285 288 284 285 286 287 287 287 289 288 290 288 291 288 289 291 293 293 293 294 291 288 287 285 284 280 279 280 279 282 285 287 289 288 284 289
311 310 309 307 305 300 291 286 285 287 283 284 285 286 288 287 289 287 288 290 291 291 293 293 291 290 289 289 287 291 284 285 285 277 277 274 285 284 284 286 288 290 289 290
312 311 309 308 305 303 292 287 287 286 284 284 283 284 286 288 290 287 286 288 290 293 291 286 285 283 283 278 280 285 288 287 278 277 277 280 284 283 281 280 283 288 289 290
310 310 309 308 306 304 296 288 290 288 284 284 285 283 285 285 285 282 282 284 289 289 288 285 280 278 282 276 277 280 284 287 286 277 275 274 283 283 287 287 279 289 289 289
309 310 310 309 307 305 298 291 291 288 282 287 286 283 282 288 287 284 282 283 283 283 284 283 280 280 272 276 275 277 280 282 281 278 277 281 286 284 286 279 284 286 289 289
308 309 309 309 308 306 299 293 292 287 284 287 285 286 283 284 286 282 283 284 282 281 282 283 280 279 273 277 279 279 280 280 279 280 276 274 286 282 282 288 288 287 288 288
308 308 308 309 308 306 302 294 291 292 285 285 288 288 288 288 289 285 285 287 284 286 285 283 280 274 270 278 274 277 279 285 282 282 282 287 286 287 289 289 288 288 288 289
306 307 308 308 308 307 303 297 290 286 284 285 284 284 289 287 286 292 284 288 288 286 287 284 282 278 279 274 276 278 278 279 281 282 285 284 285 288 288 288 288 290 290 290
305 306 307 307 308 308 306 296 290 290 285 282 285 287 284 290 288 289 288 287 284 284 284 283 280 282 280 281 281 280 280 279 279 279 281 280 285 286 288 289 288 287 288 288
303 304 305 306 307 308 306 300 291 294 290 281 284 282 285 285 287 286 286 285 283 282 280 280 280 280 278 277 277 276 279 280 279 281 283 284 287 288 288 287 286 287 286 285
302 302 303 304 306 306 303 290 286 294 290 281 278 282 280 283 285 285 284 285 284 286 284 285 283 276 282 279 278 283 280 282 285 285 285 286 285 286 286 285 287 287 285 285
301 301 302 303 304 304 294 288 289 294 290 282 275 276 278 283 284 283 283 282 283 284 284 281 283 279 281 280 279 282 282 282 283 283 282 281 282 283 284 284 286 283 283 284
300 300 301 302 304 303 297 300 293 295 289 285 276 271 276 282 280 278 283 281 281 281 283 279 281 278 279 275 282 284 283 282 282 282 282 284 284 284 282 282 282 278 280 282
298 299 300 298 295 288 288 297 296 294 286 282 274 273 272 280 280 279 280 282 277 281 278 281 281 279 275 280 282 282 284 282 283 282 281 281 281 282 282 281 280 280 281 281
298 295 286 285 287 299 294 286 284 283 284 283 279 280 273 279 278 278 278 281 277 273 278 280 276 278 282 283 284 284 284 284 285 281 281 280 279 281 282 282 282 282 281 281
290 285 285 287 298 287 285 279 280 280 279 281 279 280 272 278 277 276 277 277 276 273 276 276 275 275 280 284 284 285 283 284 284 285 285 286 287 284 283 281 281 281 280 280
288 287 287 286 285 284 279 277 279 278 277 278 278 277 279 275 282 277 274 276 275 272 277 275 272 278 284 285 285 285 284 283 283 284 284 285 283 284 282 281 281 280 280 278
286 284 283 282 283 278 274 272 274 276 279 276 277 275 274 274 278 275 274 272 271 275 273 272 276 281 277 284 285 284 285 283 284 284 284 284 282 281 281 279 280 279 276 273
282 279 276 277 277 279 278 278 280 284 282 278 280 276 277 275 273 273 271 272 271 270 269 270 278 281 277 276 283 284 284 282 282 283 280 280 281 280 278 276 272 271 270 267
280 280 274 277 277 278 277 280 279 278 282 281 280 275 275 273 270 272 266 263 267 270 273 279 284 280 276 274 278 282 281 281 282 281 278 277 278 276 273 268 268 267 266 265
279 278 274 273 276 274 276 278 275 281 282 283 281 275 273 271 270 265 267 268 269 275 277 277 272 269 269 272 273 273 274 275 274 274 274 272 272 271 270 265 265 264 264 264
273 272 274 276 277 279 277 278 278 283 281 278 278 274 274 270 269 268 272 271 274 267 267 265 262 264 264 265 266 267 268 269 268 267 268 266 264 263 265 269 267 265 264 261
Wind_Speed
24 22 21 18 14 10 5 2 2 4 4 3 1 3 3 2 8 5 2 3 0 9 10 7 7 9 1 6 5 6 1 3 4 2 3 1 3 2 4 3 4 0 1 4
25 24 24 21 18 17 4 2 1 2 3 4 4 2 2 4 7 6 4 4 2 1 8 4 5 6 3 6 7 9 7 2 5 1 0 2 4 4 5 2 1 7 6 4
27 27 26 24 23 20 3 3 1 2 2 0 6 7 5 4 4 4 4 3 3 5 4 1 6 6 3 2 2 2 2 2 1 2 4 5 6 10 11 9 5 5 10 6
29 29 29 27 27 22 2 1 4 2 6 5 6 10 10 8 7 4 5 7 9 6 4 3 4 5 3 1 2 1 1 3 3 6 5 2 4 9 13 17 13 10 5 14
31 30 31 30 29 24 2 5 5 2 3 4 11 8 11 11 6 10 6 5 15 11 6 2 9 8 7 6 5 3 1 3 2 3 4 5 4 10 14 16 16 19 16 23
29 30 32 33 33 20 4 2 1 2 7 6 10 8 9 16 12 10 4 12 8 8 3 6 6 7 7 4 6 5 4 6 3 4 3 3 9 21 22 17 16 16 18 13
29 31 33 35 38 30 4 3 4 3 3 8 10 4 15 15 20 7 8 6 5 6 16 13 9 11 11 8 7 2 6 4 2 3 2 6 2 3 2 17 18 18 17 11
23 29 30 35 40 36 6 4 5 4 6 7 7 8 7 9 10 5 7 4 2 15 6 4 3 3 2 3 4 2 3 4 4 4 5 11 10 7 8 8 7 21 24 16
19 25 30 32 39 39 12 3 4 4 2 9 5 8 8 8 8 6 3 2 5 3 3 3 7 8 5 5 1 3 1 3 2 3 5 9 1 4 6 5 11 9 16 13
18 20 27 34 39 40 17 5 8 5 4 4 9 6 10 5 6 6 6 8 6 2 4 5 5 5 2 9 10 8 7 5 11 7 7 8 8 9 4 6 4 4 7 9
20 19 22 29 37 41 23 5 15 12 6 5 9 8 5 4 6 9 10 7 3 3 7 8 7 6 9 4 5 9 14 12 8 8 9 15 13 9 11 3 2 6 7 7
21 21 20 24 30 36 32 7 11 5 3 2 3 6 4 5 2 6 14 4 11 8 6 4 5 4 3 6 7 2 9 9 11 16 11 0 21 2 8 3 5 5 7 6
21 21 22 22 27 37 36 12 12 5 3 1 3 12 17 5 5 3 7 1 6 4 2 5 4 6 7 8 7 6 7 3 4 3 10 14 11 15 4 3 7 2 4 4
22 22 23 24 25 30 39 13 10 8 4 4 6 2 6 15 8 7 2 3 6 5 3 3 4 4 6 4 2 7 4 16 10 7 8 3 11 18 18 15 10 8 7 7
23 25 21 24 24 26 21 15 13 14 10 8 2 1 5 4 15 9 8 10 6 3 3 4 4 3 5 2 1 8 10 9 12 8 9 8 7 13 19 14 13 15 10 7
21 19 18 17 23 24 12 12 5 15 3 6 5 3 2 6 13 14 9 9 3 3 2 3 3 3 4 7 8 8 16 12 9 4 5 5 3 2 7 14 15 13 8 7
21 18 18 22 22 14 11 7 8 25 5 4 2 3 0 9 9 4 4 1 2 2 2 5 2 3 4 4 14 6 14 17 16 8 5 0 5 5 8 6 4 5 4 6
20 18 18 17 20 18 12 7 28 23 9 5 6 3 3 4 5 5 3 5 4 3 4 2 7 2 1 8 25 21 11 13 14 16 14 11 6 7 6 4 4 5 6 5
21 20 19 7 7 5 3 23 33 10 5 7 7 12 8 6 3 5 4 5 5 3 6 6 5 6 11 24 18 17 21 20 14 13 13 10 11 13 10 10 9 9 9 5
21 13 5 5 6 23 21 5 11 6 3 3 3 5 7 10 5 6 6 5 5 6 6 6 6 10 22 26 19 11 15 16 16 15 17 11 11 15 15 13 9 9 7 4
8 5 5 3 19 4 4 6 7 6 6 6 6 5 10 3 8 6 2 6 6 6 7 10 7 8 28 34 28 18 10 14 18 21 20 21 17 11 10 7 8 7 6 7
9 6 3 3 5 7 9 9 8 7 8 6 9 8 7 5 3 5 5 5 6 7 9 6 5 16 28 13 21 26 21 19 19 19 19 15 7 7 8 8 6 6 6 6
5 3 8 6 9 10 12 16 7 8 7 10 10 11 7 4 2 4 4 8 7 9 6 7 10 8 3 9 12 19 24 22 23 21 12 8 10 8 6 6 5 6 4 1
5 8 10 13 9 8 6 9 9 8 10 15 17 9 7 5 6 5 8 3 5 7 8 11 9 18 8 8 9 12 21 22 19 17 10 11 10 7 5 5 6 5 3 3
7 7 7 6 4 3 4 4 7 3 9 16 13 5 4 5 6 2 7 4 7 10 10 8 5 2 7 10 9 12 8 9 11 7 10 9 7 6 6 6 5 4 3 3
5 4 3 2 4 3 3 5 5 8 13 11 3 6 6 6 7 8 10 13 11 7 5 3 4 2 3 2 6 5 7 7 6 6 6 7 7 6 7 6 4 3 3 4
2 3 3 2 2 3 3 3 6 10 16 11 5 10 6 7 6 8 7 7 1 3 2 4 6 6 5 4 4 6 8 9 7 5 6 8 7 5 5 6 5 3 3 2
Wind_Direction
199 196 200 200 195 175 207 226 226 17 317 78 40 170 198 280 168 180 208 275 118 190 168 170 176 185 161 172 187 175 165 115 150 132 114 266 281 233 216 221 188 197 8 260
201 195 195 193 190 187 156 211 254 105 301 180 196 158 212 232 159 190 183 202 268 249 178 145 177 175 119 173 192 170 176 192 122 106 225 187 228 193 208 143 116 194 173 219
203 194 193 185 183 192 274 135 177 346 79 149 170 162 194 203 200 196 176 155 149 159 162 320 166 154 142 161 220 1 187 137 246 179 92 135 190 196 199 198 190 200 218 169
205 195 191 186 178 184 202 147 237 234 177 223 206 192 169 162 181 205 214 180 207 177 128 102 166 148 128 44 12 98 288 119 83 57 64 353 241 197 196 213 215 213 205 224
206 199 188 184 173 166 163 167 166 207 158 148 167 196 195 190 171 160 213 216 180 180 164 195 180 162 178 178 166 173 53 115 91 39 4 7 306 264 235 231 239 255 258 272
210 200 193 182 170 151 160 137 352 256 150 169 173 207 195 195 166 204 164 192 183 184 175 107 76 96 75 103 152 140 130 144 166 155 336 306 272 229 226 233 236 235 237 246
211 206 196 185 175 180 120 159 130 167 214 194 201 236 199 194 195 126 155 198 161 115 120 112 75 70 76 72 61 123 141 117 39 123 246 226 220 157 247 235 243 228 245 240
222 214 197 190 183 183 156 155 139 139 242 202 209 214 207 198 188 163 157 139 92 154 127 92 102 15 17 8 39 28 312 133 116 174 216 314 290 176 180 184 264 215 235 234
218 208 202 198 191 186 177 146 120 116 62 227 169 172 179 173 163 132 99 51 164 162 111 145 188 189 168 207 202 3 289 290 161 168 222 224 307 144 140 148 278 206 203 213
225 215 208 201 196 189 180 161 153 102 211 233 170 177 181 166 156 130 132 147 175 314 152 171 186 201 324 174 180 172 159 161 202 196 251 271 241 154 184 147 237 114 152 169
226 221 213 205 196 194 183 163 180 164 191 214 185 181 157 144 175 152 144 122 221 146 190 189 177 199 205 181 146 179 175 168 181 190 225 257 152 128 195 169 72 136 141 149
228 226 223 210 205 196 185 193 175 159 157 236 243 202 225 216 196 123 182 148 152 164 175 196 136 163 168 159 197 179 203 195 175 193 205 4 183 171 211 53 154 192 169 185
225 227 227 219 208 198 188 192 146 136 177 282 171 213 210 182 222 201 145 214 163 195 22 146 157 205 170 173 218 161 218 171 220 129 220 220 227 238 178 254 242 198 228 240
230 227 227 223 217 210 203 186 169 153 122 209 228 141 177 184 171 178 113 107 64 89 140 161 170 204 213 189 113 212 176 148 175 255 266 311 223 222 232 227 226 253 240 234
229 228 229 224 220 211 200 190 180 186 175 178 204 97 159 119 161 152 147 143 132 158 157 180 205 134 156 103 345 224 186 174 189 221 184 208 238 196 212 211 215 227 232 249
225 226 226 232 223 209 202 198 196 199 102 120 189 57 133 148 159 157 164 165 170 147 202 194 181 345 215 188 217 197 194 218 224 217 175 215 100 118 156 198 216 225 192 212
219 220 238 229 221 214 207 191 155 173 119 132 140 184 85 155 117 132 152 162 121 198 225 242 175 203 222 258 247 161 198 210 216 209 117 253 204 206 177 195 155 137 171 195
225 220 227 233 220 222 232 213 155 158 154 156 156 110 179 203 138 139 155 166 186 197 201 134 227 106 294 259 245 233 199 206 219 225 211 239 115 177 183 152 152 188 223 217
222 216 222 222 210 197 219 141 161 164 168 180 163 153 173 168 117 111 158 152 173 124 218 208 167 181 216 235 240 220 217 204 195 220 229 219 208 212 202 192 191 222 238 207
212 196 179 195 187 112 104 78 164 192 205 169 143 96 147 163 157 149 146 158 172 188 214 125 217 240 247 250 242 243 214 213 198 200 230 216 230 220 222 216 218 217 216 206
194 186 172 198 155 103 170 172 165 165 191 169 152 165 137 224 162 142 204 154 160 203 179 184 199 245 235 234 236 222 199 214 214 208 219 228 236 203 205 185 187 196 201 211
151 123 113 99 218 193 176 173 160 185 176 148 166 137 123 153 155 126 171 176 182 205 138 187 219 245 243 230 224 221 211 203 210 211 214 229 145 146 149 141 162 192 217 227
87 158 191 169 216 194 190 164 159 155 155 167 163 140 125 143 156 117 161 168 194 122 172 208 235 271 257 206 193 208 213 210 216 219 208 182 138 137 148 161 176 186 201 190
193 197 198 191 174 205 169 173 155 161 154 157 159 129 133 126 160 142 161 101 139 195 200 221 237 236 194 213 216 200 209 208 214 216 155 154 153 157 149 132 117 134 175 125
218 192 229 179 102 23 64 86 107 124 154 148 146 100 102 123 130 138 116 140 199 215 220 214 239 171 188 185 196 208 199 186 195 172 137 136 147 151 119 97 100 117 147 197
225 197 134 80 130 123 139 128 123 147 149 140 120 132 161 163 148 155 194 163 197 217 214 13 352 331 327 126 109 104 104 104 107 103 111 117 117 120 110 111 125 153 166 187
188 212 110 116 353 125 145 124 153 164 149 171 158 174 165 118 165 185 183 203 50 9 39 33 12 9 359 24 96 96 92 97 103 109 110 103 98 110 126 142 131 113 90 71